NW Arkansas Airport, AR

1:26 PM CDT on August 23, 2017 (GMT -0500)
Northwest Arkansas Regional

Weather History for KXNA - August, 2012

Change the Weather History Date:

Tuesday, August 28, 2012

  Actual Average (KVBT) Record (KVBT)
Temperature  
Mean Temperature 76 °F -  
Max Temperature 90 °F 87 °F 105 °F (1954)
Min Temperature 63 °F 62 °F 47 °F (1992)
Cooling Degree Days 12    
Growing Degree Days 26 (Base 50)    
Moisture  
Dew Point 59 °F    
Average Humidity 59    
Maximum Humidity 97    
Minimum Humidity 27    
Precipitation  
Precipitation 0.00 in - - ()
Sea Level Pressure  
Sea Level Pressure 30.03 in    
Wind  
Wind Speed 7 mph (NE)    
Max Wind Speed 20 mph    
Max Gust Speed 28 mph    
Visibility 10 miles    
Events      
Averages and records for this station are not official NWS values.
T = Trace of Precipitation, MM = Missing Value Source: NWS Daily Summary

Daily Weather History Graph

Daily Weather History Graph

Search for Another Location

Airport or City:

Trip Planner

Search our weather history database for the weather conditions in past years. The results will help you decide how hot, cold, wet, or windy it might be!

Date:

Astronomy

Aug. 28, 2012 Rise Set
Actual Time 6:46 AM CDT 7:49 PM CDT
Civil Twilight 6:19 AM CDT 8:16 PM CDT
Nautical Twilight 5:48 AM CDT 8:47 PM CDT
Astronomical Twilight 5:15 AM CDT 9:20 PM CDT
Moon 5:50 PM CDT (8/28) 3:40 AM CDT (8/28)
Length of Visible Light 13h 56m
Length of Day
13h 03m
Waxing Gibbous, 90% of the Moon is Illuminated
Aug 28
Waxing Gibbous
Aug 31
Full
Sep 8
Last Quarter
Sep 15
New
Sep 22
First Quarter

Hourly Weather History & Observations

Time (CDT) Temp. Heat Index Dew Point Humidity Pressure Visibility Wind Dir Wind Speed Gust Speed Precip Events Conditions
12:53 AM 72.0 °F - 64.9 °F 78% 30.05 in 10.0 mi NE 6.9 mph - N/A   Clear
1:53 AM 72.0 °F - 64.9 °F 78% 30.05 in 10.0 mi Calm Calm - N/A   Clear
2:53 AM 66.9 °F - 63.0 °F 87% 30.04 in 10.0 mi North 3.5 mph - N/A   Clear
3:53 AM 64.9 °F - 63.0 °F 93% 30.04 in 10.0 mi North 3.5 mph - N/A   Clear
4:53 AM 64.9 °F - 62.1 °F 90% 30.04 in 10.0 mi North 3.5 mph - N/A   Clear
5:53 AM 64.9 °F - 63.0 °F 93% 30.05 in 10.0 mi Calm Calm - N/A   Clear
6:53 AM 63.0 °F - 62.1 °F 97% 30.06 in 10.0 mi NNE 3.5 mph - N/A   Clear
7:53 AM 66.9 °F - 63.0 °F 87% 30.08 in 10.0 mi NNE 4.6 mph - N/A   Clear
8:53 AM 72.0 °F - 64.9 °F 78% 30.08 in 10.0 mi ENE 5.8 mph - N/A   Clear
9:53 AM 79.0 °F - 62.1 °F 56% 30.09 in 10.0 mi East 11.5 mph - N/A   Clear
10:53 AM 82.0 °F 82.1 °F 59.0 °F 45% 30.09 in 10.0 mi East 12.7 mph 23.0 mph N/A   Clear
11:53 AM 84.0 °F 83.5 °F 57.9 °F 41% 30.09 in 10.0 mi ENE 13.8 mph 20.7 mph N/A   Clear
12:53 PM 86.0 °F 84.7 °F 55.9 °F 36% 30.06 in 10.0 mi East 13.8 mph - N/A   Clear
1:53 PM 87.1 °F 85.1 °F 54.0 °F 32% 30.04 in 10.0 mi ENE 9.2 mph 19.6 mph N/A   Clear
2:53 PM 89.1 °F 86.7 °F 53.1 °F 29% 30.02 in 10.0 mi NE 10.4 mph 17.3 mph N/A   Clear
3:53 PM 90.0 °F - 52.0 °F 27% 29.99 in 10.0 mi NE 16.1 mph 25.3 mph N/A   Clear
4:53 PM 89.1 °F - 51.1 °F 27% 29.98 in 10.0 mi ENE 19.6 mph 27.6 mph N/A   Clear
5:53 PM 88.0 °F 85.7 °F 53.1 °F 30% 29.97 in 10.0 mi ENE 15.0 mph 23.0 mph N/A   Clear
6:53 PM 87.1 °F 84.9 °F 53.1 °F 31% 29.96 in 10.0 mi ENE 11.5 mph - N/A   Clear
7:53 PM 82.0 °F 81.6 °F 55.9 °F 41% 29.96 in 10.0 mi ENE 5.8 mph - N/A   Clear
8:53 PM 79.0 °F - 55.9 °F 45% 29.97 in 10.0 mi ENE 5.8 mph - N/A   Clear
9:53 PM 75.0 °F - 57.9 °F 55% 29.98 in 10.0 mi NNE 4.6 mph - N/A   Clear
10:53 PM 69.1 °F - 59.0 °F 70% 29.98 in 10.0 mi North 4.6 mph - N/A   Clear
11:53 PM 71.1 °F - 59.0 °F 66% 29.98 in 10.0 mi North 3.5 mph - N/A   Clear